Location: Plainartige
(45.6866°N, 1.7993°E)
Time: 17:31:48
(UTC+00:00)

Tiros 1 - Pass Details

Date: 04 June 2022
Orbit: 629 x 663 km, 48.4° (Epoch: 05 July)

Event Time Altitude Azimuth Distance (km) Brightness Sun altitude
Rises 01:16:56 0° 286° (WNW) 2,918 10.5 -19.2°
Reaches altitude 10° 01:19:15 10° 288° (WNW) 2,011 9.6 -19.0°
Maximum altitude 01:23:53 77° 14° (NNE) 654 7.2 -18.7°
Drops below altitude 10° 01:28:32 10° 101° (ESE) 2,022 9.8 -18.4°
Sets 01:30:53 0° 103° (ESE) 2,935 10.7 -18.2°
